0 ORBCOMM-X 1 21576U 91050C 25137.45683716 .00000459 00000-0 14915-3 0 9995 2 21576 98.3446 204.6787 0002322 282.8275 77.2656 14.43240128777681 0 ORBCOMM FM 1 1 23545U 95017A 25137.51816321 .00006760 00000-0 71257-3 0 9990 2 23545 69.9615 150.5908 0004387 314.4984 45.5811 14.89736479607948 0 ORBCOMM FM 2 1 23546U 95017B 25137.54484758 .00007933 00000-0 81830-3 0 9990 2 23546 69.9633 170.0081 0005453 326.3394 33.7413 14.90526665607897 0 ORBCOMM FM 8 1 25112U 97084A 25137.43111947 .00001371 00000-0 42405-3 0 9997 2 25112 45.0124 155.4964 0003861 87.1213 273.0080 14.45720469436929 0 ORBCOMM FM 10 1 25113U 97084B 25137.40771975 .00001266 00000-0 39644-3 0 9992 2 25113 45.0135 157.9357 0003243 28.1154 331.9872 14.45508958612069 0 ORBCOMM FM 11 1 25114U 97084C 25137.54521985 .00001411 00000-0 43914-3 0 9999 2 25114 45.0122 157.8536 0003895 36.7020 323.4098 14.45263794437049 0 ORBCOMM FM 12 1 25115U 97084D 25137.50815845 .00001401 00000-0 43630-3 0 9991 2 25115 45.0130 157.7848 0003108 25.3340 334.7663 14.45283916436837 0 ORBCOMM FM 9 1 25116U 97084E 25137.39958804 .00001316 00000-0 41313-3 0 9993 2 25116 45.0133 159.2078 0004730 21.3270 338.7777 14.45161361437024 0 ORBCOMM FM 5 1 25117U 97084F 25137.47006743 .00001418 00000-0 43579-3 0 9998 2 25117 45.0134 155.5292 0001610 339.7691 20.3096 14.45853609436165 0 ORBCOMM FM 6 1 25118U 97084G 25137.49496075 .00001560 00000-0 47428-3 0 9997 2 25118 45.0125 155.1810 0001734 303.6699 213.5286 14.45983595437080 0 ORBCOMM FM 7 1 25119U 97084H 25137.47810470 .00001421 00000-0 43568-3 0 9992 2 25119 45.0119 156.0303 0002182 357.4785 2.6055 14.45974778437075 0 ORBCOMM FM 3 1 25158U 98007B 25137.58047642 .00001336 00000-0 51438-3 0 9996 2 25158 107.9649 72.7299 0046749 302.2251 57.4362 14.34437996419652 0 ORBCOMM FM 4 1 25159U 98007C 25137.50027952 .00001332 00000-0 51142-3 0 9999 2 25159 107.9637 75.7650 0042501 299.8158 59.8760 14.34690214419824 0 ORBCOMM FM 17 1 25413U 98046A 25137.41954518 .00001082 00000-0 42540-3 0 9996 2 25413 44.9956 42.8063 0003286 36.9661 323.1412 14.35044790398752 0 ORBCOMM FM 18 1 25414U 98046B 25137.51503051 .00001462 00000-0 52016-3 0 9991 2 25414 44.9940 320.5724 0005222 131.0410 229.0890 14.38488880399836 0 ORBCOMM FM 19 1 25415U 98046C 25137.53340361 .00001445 00000-0 51692-3 0 9997 2 25415 44.9952 322.4362 0003967 125.6445 266.6438 14.38296167399997 0 ORBCOMM FM 20 1 25416U 98046D 25137.60216259 .00001060 00000-0 40052-3 0 9995 2 25416 44.9954 326.1083 0001239 136.1424 223.9522 14.37160314399864 0 ORBCOMM FM 16 1 25417U 98046E 25137.56474059 .00001517 00000-0 53421-3 0 9996 2 25417 44.9947 318.2564 0005142 145.6176 214.5006 14.38840893399848 0 ORBCOMM FM 15 1 25418U 98046F 25137.53332015 .00001164 00000-0 42366-3 0 9993 2 25418 44.9977 323.4582 0004760 145.7537 214.3619 14.38487016399838 0 ORBCOMM FM 14 1 25419U 98046G 25137.55874984 .00001373 00000-0 48806-3 0 9999 2 25419 44.9969 321.6626 0003559 140.1849 219.9261 14.38843647399806 0 ORBCOMM FM 13 1 25420U 98046H 25137.57698516 .00001239 00000-0 45579-3 0 9993 2 25420 44.9984 329.2566 0005484 125.1436 234.9927 14.37614180398831 0 ORBCOMM FM 21 1 25475U 98053A 25137.50697542 .00001144 00000-0 42748-3 0 9992 2 25475 45.0094 54.7765 0001937 21.0253 339.0675 14.37294188392839 0 ORBCOMM FM 22 1 25476U 98053B 25137.07981041 .00001104 00000-0 40569-3 0 9990 2 25476 45.0085 51.9010 0003510 43.5526 316.5599 14.38313376392795 0 ORBCOMM FM 23 1 25477U 98053C 25137.51153935 .00001358 00000-0 49652-3 0 9996 2 25477 45.0090 56.9207 0002797 33.2728 326.8295 14.37470583392982 0 ORBCOMM FM 24 1 25478U 98053D 25137.46171455 .00001408 00000-0 50744-3 0 9998 2 25478 45.0087 54.7703 0002476 37.0502 323.0517 14.38034362393026 0 ORBCOMM FM 25 1 25479U 98053E 25137.50199913 .00001409 00000-0 50809-3 0 9996 2 25479 45.0080 52.8461 0004160 69.9290 290.2005 14.38009830393322 0 ORBCOMM FM 26 1 25480U 98053F 25137.49353554 .00001141 00000-0 42826-3 0 9992 2 25480 45.0078 49.1250 0005444 97.0153 263.1314 14.37081416393233 0 ORBCOMM FM 27 1 25481U 98053G 25137.49029901 .00001515 00000-0 54263-3 0 9992 2 25481 45.0063 53.1158 0001473 5.1732 354.9131 14.38035585393256 0 ORBCOMM FM 28 1 25482U 98053H 25137.60154179 .00001111 00000-0 40853-3 0 9994 2 25482 45.0072 350.1357 0004569 137.6657 222.4545 14.38235299393953 0 ORBCOMM FM 30 1 25980U 99065A 25137.55648408 .00001018 00000-0 38579-3 0 9996 2 25980 45.0311 234.6944 0008233 218.2740 141.7524 14.37247823330047 0 ORBCOMM FM 31 1 25981U 99065B 25137.52847165 .00000845 00000-0 32852-3 0 9990 2 25981 45.0223 228.3238 0005746 237.8477 122.1814 14.37189303329597 0 ORBCOMM FM 32 1 25982U 99065C 25137.34586687 .00001022 00000-0 39489-3 0 9991 2 25982 45.0152 245.5584 0007792 232.2593 127.7549 14.36230950330160 0 ORBCOMM FM 33 1 25983U 99065D 25137.49683158 .00000982 00000-0 35411-3 0 9994 2 25983 45.0270 144.8628 0010609 271.3627 88.6007 14.39941000331641 0 ORBCOMM FM 36 1 25984U 99065E 25137.56058444 .00001392 00000-0 50210-3 0 9997 2 25984 45.0389 236.0274 0003955 178.5837 181.5023 14.38058812330011 0 ORBCOMM FM 35 1 25985U 99065F 25137.58793247 .00001138 00000-0 42760-3 0 9996 2 25985 45.0392 240.6897 0005431 236.9858 123.0469 14.37039256330386 0 ORBCOMM FM 34 1 25986U 99065G 25137.55451314 .00001003 00000-0 38228-3 0 9995 2 25986 45.0386 241.3239 0005442 201.3735 158.6887 14.37068399330490 0 ORBCOMM FM 38 1 33060U 08031A 25137.58758940 .00002616 00000-0 35956-3 0 9994 2 33060 48.4390 101.0597 0005500 270.4613 89.5672 14.81210581910219 0 ORBCOMM FM 41 1 33061U 08031B 25137.33351848 .00002231 00000-0 31363-3 0 9995 2 33061 48.4433 109.9430 0004645 256.1887 216.6926 14.80796764909667 0 ORBCOMM FM 29 1 33062U 08031C 25137.32736950 .00002253 00000-0 31575-3 0 9995 2 33062 48.4383 117.8193 0006365 254.4634 258.3712 14.80895652909570 0 ORBCOMM FM 39 1 33063U 08031D 25137.50206219 .00001548 00000-0 23314-3 0 9994 2 33063 48.4392 140.9256 0007119 228.6480 131.3823 14.79464334909253 0 ORBCOMM FM 37 1 33064U 08031E 25137.50346803 .00001645 00000-0 24473-3 0 9994 2 33064 48.4387 129.4942 0005811 247.5499 257.4120 14.79672256909501 0 ORBCOMM FM 40 1 33065U 08031F 25137.46217963 .00002946 00000-0 39505-3 0 9991 2 33065 48.4400 114.2368 0006974 258.8024 246.9221 14.81893957909604 0 VESSELSAT 1 1 37840U 11058C 25137.55664111 .00000402 00000-0 74325-4 0 9995 2 37840 19.9623 279.2350 0013551 209.3858 150.5784 14.11348910701978 0 ORBCOMM FM 109 1 40086U 14040A 25137.55669504 .00000515 00000-0 14723-3 0 9996 2 40086 47.0018 160.9513 0002228 229.0613 131.0080 14.58131020576592 0 ORBCOMM FM 107 1 40087U 14040B 25137.44969304 .00000630 00000-0 17178-3 0 9991 2 40087 47.0033 162.4328 0000846 201.0338 159.0513 14.58196732576658 0 ORBCOMM FM 106 1 40088U 14040C 25137.63416498 .00001154 00000-0 22440-3 0 9994 2 40088 47.0619 346.1091 0017411 283.9473 75.9481 14.69383974578988 0 ORBCOMM FM 111 1 40089U 14040D 25137.56428912 .00002696 00000-0 32615-3 0 9998 2 40089 47.0000 200.7381 0029650 43.7272 316.5967 14.86157520585679 0 ORBCOMM FM 104 1 40090U 14040E 25137.54154975 .00000621 00000-0 17557-3 0 9997 2 40090 47.0040 195.2390 0015449 63.4682 296.7784 14.56609514576159 0 ORBCOMM FM 103 1 40091U 14040F 25137.55767964 .00000550 00000-0 15486-3 0 9997 2 40091 47.0038 162.4507 0001265 176.4957 183.5937 14.58127868559630 0 ORBCOMM FM 114 1 41179U 15081A 25137.51162443 .00000866 00000-0 22255-3 0 9990 2 41179 47.0032 71.7305 0002311 227.3282 132.7409 14.58170491499992 0 ORBCOMM FM 119 1 41180U 15081B 25137.56675201 .00000756 00000-0 19911-3 0 9991 2 41180 47.0019 340.7744 0001599 268.6570 91.4132 14.58103099501257 0 ORBCOMM FM 105 1 41181U 15081C 25137.52606383 .00000349 00000-0 14340-3 0 9992 2 41181 47.0029 342.9370 0001782 197.3477 162.7343 14.45199779496318 0 ORBCOMM FM 110 1 41182U 15081D 25137.14852165 .00001028 00000-0 25835-3 0 9998 2 41182 47.0023 72.8513 0001675 4.7083 355.3818 14.57969560499817 0 ORBCOMM FM 118 1 41183U 15081E 25137.54146948 .00000929 00000-0 23475-3 0 9995 2 41183 47.0043 71.4284 0004665 359.5578 0.5303 14.58461078499979 0 ORBCOMM FM 112 1 41184U 15081F 25137.61170119 .00000774 00000-0 20284-3 0 9994 2 41184 47.0003 339.7183 0001515 227.0538 133.0221 14.58127045501204 0 ORBCOMM FM 113 1 41185U 15081G 25137.58852994 .00001025 00000-0 25696-3 0 9991 2 41185 47.0021 340.1481 0001515 243.5783 116.4947 14.58125852501188 0 ORBCOMM FM 115 1 41186U 15081H 25137.51222855 .00000724 00000-0 17595-3 0 9996 2 41186 46.9973 185.4423 0001804 272.6465 87.4216 14.62453477503281 0 ORBCOMM FM 108 1 41187U 15081J 25137.61007645 .00001113 00000-0 27602-3 0 9999 2 41187 47.0049 251.3690 0002976 191.7962 168.2854 14.58109943502333 0 ORBCOMM FM 117 1 41188U 15081K 25137.57628440 .00001104 00000-0 27400-3 0 9993 2 41188 47.0011 250.3005 0003501 196.4087 163.6686 14.58111819502378 0 ORBCOMM FM 116 1 41189U 15081L 25137.56527198 .00001089 00000-0 27074-3 0 9990 2 41189 47.0034 340.2004 0002105 2.8480 357.2417 14.58123446501188